Location: Newark
(25.0000°N, 73.5000°E)
Time: 16:37:23
(UTC+00:00)

SR - All Passes

Search period start: 26 February 2021 00:00
Search period end: 08 March 2021 00:00
Orbit: 573 x 882 km, 66.7° (Epoch: 25 February)

Date Brightness Start Highest point End Pass type
(mag) Time Alt. Az. Time Alt. Az. Time Alt. Az.
26 Feb - 00:31:33 10° N 00:36:55 35° ENE 00:42:05 10° SE visible
26 Feb - 02:14:09 10° NW 02:18:44 24° WSW 02:23:09 10° SSW daylight
26 Feb - 14:52:25 10° SSW 14:57:10 66° WNW 15:02:24 10° NNE visible
26 Feb - 23:43:03 10° NNE 23:46:50 17° ENE 23:50:32 10° E visible
27 Feb - 01:23:30 10° NW 01:29:13 53° WSW 01:34:40 10° S daylight
27 Feb - 14:02:54 10° S 14:07:29 50° ESE 14:12:32 10° NE visible
27 Feb - 15:47:20 10° W 15:49:55 14° NW 15:52:34 10° NNW visible
28 Feb - 00:33:38 10° NNW 00:39:32 70° ENE 00:45:08 10° SSE visible
28 Feb - 02:19:37 10° W 02:20:53 11° WSW 02:22:08 10° WSW daylight
28 Feb - 13:14:32 10° SSE 13:18:03 20° ESE 13:21:46 10° ENE daylight
28 Feb - 14:55:29 10° WSW 14:59:46 30° WNW 15:04:25 10° N visible
28 Feb - 23:44:22 10° N 23:49:38 33° ENE 23:54:41 10° SE visible
01 Mar - 01:26:46 10° NW 01:31:30 26° WSW 01:36:03 10° SSW daylight
01 Mar - 14:05:06 10° SSW 14:09:53 72° WNW 14:15:10 10° NNE visible
01 Mar - 22:56:01 10° NNE 22:59:32 16° NE 23:02:57 10° E visible
02 Mar - 00:36:12 10° NNW 00:41:59 58° WSW 00:47:26 10° S visible
02 Mar - 13:15:40 10° S 13:20:14 46° ESE 13:25:14 10° NE daylight
02 Mar - 14:59:41 10° W 15:02:35 15° NW 15:05:36 10° NNW visible
02 Mar - 23:46:24 10° NNW 23:52:17 65° ENE 23:57:49 10° SSE visible
03 Mar - 01:31:41 10° W 01:33:39 12° WSW 01:35:36 10° WSW daylight
03 Mar - 12:27:26 10° SSE 12:30:48 19° ESE 12:34:20 10° ENE daylight
03 Mar - 14:08:03 10° SW 14:12:28 33° WNW 14:17:15 10° N visible
03 Mar - 22:57:13 10° N 23:02:20 30° ENE 23:07:17 10° ESE visible
04 Mar - 00:39:24 10° NW 00:44:16 28° WSW 00:48:55 10° SSW visible
04 Mar - 13:17:46 10° SSW 13:22:36 79° WNW 13:27:55 10° NNE daylight
04 Mar - 22:09:00 10° NNE 22:12:13 15° NE 22:15:21 10° E visible
04 Mar - 23:48:56 10° NNW 23:54:43 63° WSW 00:00:12 10° S visible
05 Mar - 12:28:26 10° S 12:32:58 42° ESE 12:37:56 10° NE daylight
05 Mar - 14:12:04 10° W 14:15:15 17° NW 14:18:35 10° NNW visible
05 Mar - 22:59:11 10° NNW 23:05:00 60° ENE 23:10:30 10° SE visible
06 Mar - 00:43:58 10° WNW 00:46:25 13° WSW 00:48:50 10° SW visible
06 Mar - 11:40:23 10° SE 11:43:33 17° ESE 11:46:52 10° ENE daylight
06 Mar - 13:20:39 10° SW 13:25:09 36° WNW 13:30:05 10° N daylight
06 Mar - 22:10:02 10° N 22:15:03 28° ENE 22:19:51 10° ESE visible
06 Mar - 23:52:02 10° NW 23:57:01 30° WSW 00:01:47 10° SSW visible
07 Mar - 12:30:27 10° SSW 12:35:19 85° WNW 12:40:41 10° NNE daylight
07 Mar - 21:22:02 10° NNE 21:24:53 14° NE 21:27:41 10° E night (unlit)
07 Mar - 23:01:38 10° NNW 23:07:28 68° WSW 23:12:57 10° SSE visible
